Weather History for KFNL - January, 2014

Change the Weather History Date:

Friday, January 31, 2014

  Actual Average Record
Temperature  
Mean Temperature 20 °F -  
Max Temperature 24 °F 41 °F 64 °F (2003)
Min Temperature 17 °F 18 °F 1 °F (2002)
Degree Days  
Heating Degree Days 44    
Moisture  
Dew Point 16 °F    
Average Humidity 87    
Maximum Humidity 93    
Minimum Humidity 74    
Precipitation  
Precipitation 0.01 in - - ()
Sea Level Pressure  
Sea Level Pressure 29.78 in    
Wind  
Wind Speed 6 mph (ENE)    
Max Wind Speed 15 mph    
Max Gust Speed -    
Visibility 8 miles    
Events      
Averages and records for this station are not official NWS values.
T = Trace of Precipitation, MM = Missing Value Source: NWS Daily Summary

Daily Weather History Graph

Daily Weather History Graph

Search for Another Location

Airport or City:

Trip Planner

Search our weather history database for the weather conditions in past years. The results will help you decide how hot, cold, wet, or windy it might be!

Date:

Astronomy

Jan. 31, 2014 Rise Set
Actual Time 7:10 AM MST 5:17 PM MST
Civil Twilight 6:41 AM MST 5:46 PM MST
Nautical Twilight 6:08 AM MST 6:18 PM MST
Astronomical Twilight 5:36 AM MST 6:50 PM MST
Moon 7:21 AM MST (1/31) 6:44 PM MST (1/31)
Length of Visible Light 11h 04m
Length of Day
10h 06m
New Moon, 1% of the Moon is Illuminated
Jan 31
New Moon
Feb 6
First Quarter
Feb 14
Full
Feb 22
Last Quarter
Mar 1
New

Hourly Weather History & Observations

Time (MST) Temp. Windchill Dew Point Humidity Pressure Visibility Wind Dir Wind Speed Gust Speed Precip Events Conditions
12:15 AM 19.4 °F 5.5 °F 17.6 °F 93% 29.77 in 1.5 mi NNE 15.0 mph - N/A   Overcast
12:35 AM 19.4 °F 7.2 °F 17.6 °F 93% 29.79 in 1.5 mi NNE 11.5 mph - N/A   Overcast
12:55 AM 19.4 °F 7.9 °F 17.6 °F 93% 29.79 in 1.5 mi NNE 10.4 mph - N/A   Overcast
1:15 AM 19.4 °F 7.9 °F 17.6 °F 93% 29.80 in 1.2 mi NNE 10.4 mph - N/A   Overcast
1:35 AM 19.4 °F 8.6 °F 17.6 °F 93% 29.80 in 1.5 mi NNE 9.2 mph - N/A   Overcast
1:55 AM 19.4 °F 7.9 °F 17.6 °F 93% 29.81 in 2.0 mi NNE 10.4 mph - N/A   Overcast
2:15 AM 19.4 °F 9.5 °F 15.8 °F 86% 29.81 in 1.8 mi NE 8.1 mph - N/A   Overcast
2:35 AM 19.4 °F 10.4 °F 15.8 °F 86% 29.82 in 3.0 mi NE 6.9 mph - N/A   Overcast
2:55 AM 19.4 °F 9.5 °F 15.8 °F 86% 29.81 in 3.0 mi ENE 8.1 mph - N/A   Overcast
3:15 AM 17.6 °F 9.3 °F 15.8 °F 93% 29.81 in 4.0 mi ENE 5.8 mph - N/A   Mostly Cloudy
3:35 AM 17.6 °F 12.3 °F 15.8 °F 93% 29.81 in 5.0 mi NE 3.5 mph - N/A   Scattered Clouds
3:55 AM 17.6 °F - 15.8 °F 93% 29.81 in 5.0 mi Calm Calm - N/A   Overcast
4:15 AM 17.6 °F - 15.8 °F 93% 29.83 in 7.0 mi Calm Calm - N/A   Overcast
4:35 AM 17.6 °F 12.3 °F 15.8 °F 93% 29.83 in 4.0 mi East 3.5 mph - N/A   Overcast
4:55 AM 17.6 °F 12.3 °F 15.8 °F 93% 29.84 in 9.0 mi East 3.5 mph - N/A   Overcast
5:15 AM 17.6 °F 10.7 °F 14.0 °F 86% 29.83 in 10.0 mi East 4.6 mph - N/A   Overcast
5:35 AM 17.6 °F 9.3 °F 14.0 °F 86% 29.83 in 10.0 mi East 5.8 mph - N/A   Overcast
5:55 AM 17.6 °F 7.3 °F 15.8 °F 93% 29.83 in 5.0 mi East 8.1 mph - N/A   Overcast
6:15 AM 17.6 °F 12.3 °F 14.0 °F 86% 29.84 in 10.0 mi East 3.5 mph - N/A   Overcast
6:35 AM 17.6 °F 10.7 °F 14.0 °F 86% 29.84 in 10.0 mi East 4.6 mph - N/A   Overcast
6:55 AM 17.6 °F 10.7 °F 14.0 °F 86% 29.84 in 10.0 mi East 4.6 mph - N/A   Overcast
7:15 AM 17.6 °F 8.2 °F 14.0 °F 86% 29.84 in 10.0 mi East 6.9 mph - N/A   Overcast
7:35 AM 17.6 °F 10.7 °F 14.0 °F 86% 29.85 in 10.0 mi East 4.6 mph - N/A   Overcast
7:55 AM 17.6 °F 9.3 °F 14.0 °F 86% 29.84 in 10.0 mi East 5.8 mph - N/A   Overcast
8:15 AM 17.6 °F 10.7 °F 14.0 °F 86% 29.84 in 10.0 mi East 4.6 mph - N/A   Overcast
8:35 AM 17.6 °F 10.7 °F 14.0 °F 86% 29.84 in 8.0 mi East 4.6 mph - N/A   Overcast
8:55 AM 17.6 °F 10.7 °F 14.0 °F 86% 29.83 in 10.0 mi East 4.6 mph - N/A   Overcast
9:15 AM 17.6 °F 12.3 °F 15.8 °F 93% 29.83 in 9.0 mi East 3.5 mph - N/A   Overcast
9:35 AM 17.6 °F - 15.8 °F 93% 29.83 in 10.0 mi Calm Calm - N/A   Overcast
9:55 AM 17.6 °F - 15.8 °F 93% 29.83 in 10.0 mi Calm Calm - N/A   Overcast
10:15 AM 17.6 °F - 14.0 °F 86% 29.82 in 10.0 mi Calm Calm - N/A   Overcast
10:35 AM 17.6 °F - 14.0 °F 86% 29.82 in 10.0 mi Calm Calm - N/A   Overcast
10:55 AM 17.6 °F - 14.0 °F 86% 29.80 in 10.0 mi Calm Calm - N/A   Overcast
11:15 AM 19.4 °F - 15.8 °F 86% 29.78 in 10.0 mi Calm Calm - N/A   Mostly Cloudy
11:35 AM 19.4 °F - 15.8 °F 86% 29.77 in 10.0 mi Calm Calm - N/A   Mostly Cloudy
11:55 AM 19.4 °F - 15.8 °F 86% 29.76 in 10.0 mi Calm Calm - N/A   Mostly Cloudy
12:15 PM 21.2 °F - 15.8 °F 80% 29.74 in 10.0 mi Calm Calm - N/A   Partly Cloudy
12:35 PM 19.4 °F - 15.8 °F 86% 29.74 in 10.0 mi Calm Calm - N/A   Scattered Clouds
12:55 PM 21.2 °F - 17.6 °F 86% 29.72 in 10.0 mi Calm Calm - N/A   Partly Cloudy
1:15 PM 23.0 °F 18.4 °F 15.8 °F 74% 29.72 in 10.0 mi East 3.5 mph - N/A   Partly Cloudy
1:35 PM 24.8 °F 19.1 °F 17.6 °F 74% 29.71 in 10.0 mi East 4.6 mph - N/A   Partly Cloudy
1:55 PM 21.2 °F 14.9 °F 15.8 °F 80% 29.71 in 10.0 mi East 4.6 mph - N/A   Mostly Cloudy
2:15 PM 21.2 °F 13.6 °F 15.8 °F 80% 29.71 in 10.0 mi East 5.8 mph - N/A   Overcast
2:35 PM 21.2 °F 16.4 °F 15.8 °F 80% 29.71 in 10.0 mi East 3.5 mph - N/A   Overcast
2:55 PM 21.2 °F 16.4 °F 15.8 °F 80% 29.71 in 10.0 mi East 3.5 mph - N/A   Overcast
3:15 PM 21.2 °F 14.9 °F 14.0 °F 74% 29.71 in 10.0 mi East 4.6 mph - N/A   Mostly Cloudy
3:35 PM 19.4 °F - 15.8 °F 86% 29.72 in 10.0 mi Calm Calm - N/A   Mostly Cloudy
3:55 PM 19.4 °F - 15.8 °F 86% 29.72 in 10.0 mi Calm Calm - N/A   Overcast
4:15 PM 19.4 °F - 15.8 °F 86% 29.73 in 10.0 mi Calm Calm - N/A   Mostly Cloudy
4:35 PM 19.4 °F - 15.8 °F 86% 29.73 in 10.0 mi Calm Calm - N/A   Mostly Cloudy
4:55 PM 19.4 °F - 15.8 °F 86% 29.73 in 10.0 mi Calm Calm - N/A   Partly Cloudy
5:15 PM 19.4 °F - 15.8 °F 86% 29.73 in 10.0 mi Calm Calm - N/A   Clear
5:35 PM 19.4 °F - 15.8 °F 86% 29.73 in 10.0 mi Calm Calm - N/A   Partly Cloudy
5:55 PM 19.4 °F - 15.8 °F 86% 29.74 in 10.0 mi Calm Calm - N/A   Partly Cloudy
6:15 PM 19.4 °F - 15.8 °F 86% 29.74 in 10.0 mi Calm Calm - N/A   Clear
6:35 PM 19.4 °F - 15.8 °F 86% 29.74 in 10.0 mi Calm Calm - N/A   Clear
6:55 PM 19.4 °F - 17.6 °F 93% 29.74 in 8.0 mi Calm Calm - N/A   Clear
7:15 PM 21.2 °F 13.6 °F 17.6 °F 86% 29.74 in 9.0 mi South 5.8 mph - N/A   Clear
7:35 PM 21.2 °F 11.7 °F 17.6 °F 86% 29.74 in 8.0 mi SW 8.1 mph - N/A   Clear
7:55 PM 21.2 °F - 19.4 °F 93% 29.74 in 7.0 mi Calm Calm - N/A   Clear
8:15 PM 21.2 °F - 19.4 °F 93% 29.74 in 5.0 mi Calm Calm - N/A   Clear
8:35 PM 21.2 °F 14.9 °F 19.4 °F 93% 29.74 in 7.0 mi SSE 4.6 mph - N/A   Clear
8:55 PM 21.2 °F 12.6 °F 19.4 °F 93% 29.74 in 6.0 mi SSE 6.9 mph - N/A   Clear
9:15 PM 21.2 °F 14.9 °F 19.4 °F 93% 29.75 in 6.0 mi NNE 4.6 mph - N/A   Clear
9:35 PM 21.2 °F 12.6 °F 17.6 °F 86% 29.76 in 7.0 mi NE 6.9 mph - N/A   Clear
9:55 PM 21.2 °F 12.6 °F 17.6 °F 86% 29.75 in 6.0 mi NE 6.9 mph - N/A   Partly Cloudy
10:15 PM 21.2 °F 12.6 °F 17.6 °F 86% 29.76 in 6.0 mi NNE 6.9 mph - N/A   Clear
10:35 PM 21.2 °F 14.9 °F 17.6 °F 86% 29.76 in 5.0 mi ENE 4.6 mph - N/A   Clear
10:55 PM 19.4 °F 12.8 °F 17.6 °F 93% 29.76 in 5.0 mi SW 4.6 mph - N/A   Scattered Clouds
11:15 PM 21.2 °F 12.6 °F 17.6 °F 86% 29.76 in 5.0 mi South 6.9 mph - N/A   Scattered Clouds
11:35 PM 21.2 °F 16.4 °F 17.6 °F 86% 29.76 in 5.0 mi SW 3.5 mph - N/A   Scattered Clouds
11:55 PM 21.2 °F - 19.4 °F 93% 29.78 in 6.0 mi Calm Calm - N/A   Mostly Cloudy